Temperature
15 15 15 15 15 15 15 15 14 14 14 14 13 13 13 13 13 13 13 13 13 13 13 13 13 12 12 12 12 12 12 11 11 11 11 11 11 11 11 11 11 11 11
15 15 15 15 15 15 15 15 14 14 14 13 13 13 13 13 13 13 13 13 13 13 13 13 12 12 12 12 12 12 11 11 11 11 11 11 11 10 10 10 10 11 11
15 15 15 15 15 15 14 14 14 14 13 13 13 13 13 13 13 13 13 13 13 13 13 12 12 12 12 12 11 11 11 11 11 11 10 10 10 10 10 10 10 10 10
15 15 15 15 15 14 14 14 14 14 13 13 13 13 13 13 13 13 13 13 13 12 12 12 12 12 12 11 11 11 11 11 10 10 10 10 10 10 10 10 10 10 10
15 15 15 15 14 14 14 14 14 13 13 13 13 13 13 13 13 13 13 13 12 12 12 12 12 11 11 11 11 11 10 10 10 10 10 10 10 10 10 10 10 9 9
15 14 14 14 14 14 14 14 13 13 13 13 13 12 12 12 13 13 13 13 12 12 12 11 11 11 11 11 10 10 10 10 10 10 10 9 9 9 9 9 9 9 9
15 14 14 14 14 14 14 13 13 13 13 13 12 12 12 12 13 13 13 12 12 12 11 11 11 10 10 10 10 10 10 9 9 9 9 9 9 9 9 9 9 9 9
14 14 14 14 14 13 13 13 13 13 13 13 12 12 12 12 12 12 12 12 12 11 11 11 10 10 10 10 10 9 9 9 9 9 9 9 9 9 9 9 9 9 9
14 14 14 14 13 13 13 13 13 13 13 12 12 12 12 12 11 11 12 11 11 11 10 10 10 9 9 9 9 9 9 9 8 8 8 8 8 8 8 8 8 8 8
14 14 14 13 13 13 13 13 13 13 12 12 12 12 11 11 11 10 10 11 10 10 10 9 9 9 9 9 8 8 8 8 8 8 8 8 8 8 8 8 8 8 8
13 13 13 13 13 13 13 13 13 12 12 12 12 12 11 11 10 10 10 10 10 9 9 9 8 8 8 8 8 8 8 7 7 7 7 7 7 7 7 7 7 7 8
13 13 13 13 13 13 13 12 12 12 12 12 11 11 11 11 10 10 9 9 9 9 9 8 8 8 7 7 7 7 7 7 7 7 7 7 7 7 7 7 7 7 7
12 13 13 13 13 12 12 12 12 12 12 11 11 11 11 10 10 10 9 8 8 8 8 8 7 7 7 7 6 6 6 6 6 6 6 6 7 7 7 6 6 7 7
12 12 12 12 12 12 12 11 11 11 11 11 11 11 10 10 10 9 8 7 7 7 7 7 7 7 6 6 6 5 5 5 5 5 5 6 6 6 6 6 6 6 6
12 12 12 12 12 11 11 11 11 11 11 11 11 10 10 10 9 9 8 7 6 6 6 6 6 6 6 5 5 5 5 5 5 5 5 5 5 5 5 5 5 6 6
11 11 11 11 11 11 11 11 10 10 10 10 10 10 9 9 9 8 8 7 6 5 5 5 5 5 5 4 4 4 4 4 4 4 4 4 4 4 4 4 5 5 5
11 11 11 10 10 10 10 10 10 10 10 10 9 9 9 8 8 8 7 6 6 5 4 4 4 4 4 4 4 3 3 3 3 3 3 3 3 4 4 4 4 4 4
10 10 10 10 10 10 10 10 9 9 9 9 9 8 8 8 7 7 6 6 5 5 4 3 3 3 3 3 3 3 3 3 2 3 2 2 3 3 3 3 3 4 4
9 9 9 9 9 9 9 9 9 9 9 8 8 8 7 7 6 6 5 5 4 4 4 3 3 3 3 3 2 2 2 2 2 2 2 2 2 2 2 3 3 3 3
9 9 9 9 8 8 8 8 8 8 8 7 7 7 7 6 5 5 4 4 4 3 3 3 2 2 2 2 2 2 2 2 2 1 1 1 1 1 2 2 2 2 2
8 8 8 8 8 8 8 8 7 7 7 7 6 6 5 5 5 4 4 3 3 3 2 2 2 2 2 2 2 2 1 1 1 1 1 1 1 1 1 1 1 1 2
7 7 7 7 7 7 7 7 7 7 6 6 5 5 5 4 4 3 3 3 2 2 2 2 2 2 2 1 1 1 1 1 1 1 1 1 1 0 1 1 1 1 1
6 6 6 6 6 6 6 6 6 6 5 5 5 4 4 4 3 3 2 2 2 2 2 1 1 1 1 1 1 1 1 1 0 1 0 0 0 0 0 0 0 0 0
6 6 6 5 6 6 5 5 5 5 5 4 4 4 3 3 3 2 2 2 1 1 1 1 1 1 1 1 1 1 0 0 0 0 -0 -0 -0 -0 -0 -0 -0 -0 -0
5 5 5 5 5 5 5 5 5 4 4 4 3 3 3 2 2 2 1 1 1 1 1 0 0 0 0 0 0 0 0 -0 -0 -0 -0 -1 -0 -1 -1 -1 -1 -1 -1
4 4 4 4 4 4 4 4 4 4 3 3 3 2 2 1 1 1 1 0 0 0 0 -0 -0 -0 -0 -0 -0 -0 -1 -1 -1 -1 -1 -1 -1 -1 -1 -1 -1 -1 -1
Wind_Speed
7 8 7 8 8 7 8 7 7 6 6 5 5 5 5 5 4 4 3 3 4 5 6 6 6 5 5 4 3 3 3 3 3 3 3 3 3 3 3 3 3 3 2
8 7 7 7 7 8 7 7 7 6 5 5 5 5 5 5 5 5 4 4 4 5 5 5 5 5 5 4 4 3 3 3 3 4 4 4 4 4 4 4 4 3 3
10 8 7 7 7 8 8 7 7 6 5 5 6 5 5 5 5 5 5 4 4 3 4 4 5 5 4 4 3 2 2 2 3 3 4 4 4 5 5 5 5 5 4
11 9 7 7 8 7 7 6 6 6 6 6 5 4 4 4 5 5 5 4 4 3 2 2 3 3 3 3 3 3 3 2 2 3 3 4 4 5 6 6 6 5 5
12 10 7 7 8 7 7 6 7 6 6 5 5 4 4 4 4 4 5 4 3 3 2 1 0 1 2 2 2 3 3 2 3 3 4 4 4 5 6 5 6 6 5
12 10 8 9 8 7 7 7 8 6 6 5 4 4 4 4 3 3 3 3 2 2 2 2 1 1 2 1 1 2 2 3 3 4 4 5 5 5 6 5 5 6 6
12 11 8 8 8 8 9 9 8 8 6 5 4 4 4 4 4 3 2 2 2 1 1 1 0 1 1 2 3 3 4 4 4 4 5 5 4 5 6 6 6 6 6
12 10 10 8 8 8 9 9 8 6 5 5 5 4 4 4 4 2 2 2 1 1 1 1 0 1 1 1 3 4 5 5 5 5 5 5 5 5 5 5 5 5 5
12 11 11 9 8 8 8 9 9 9 7 6 6 5 4 5 2 3 3 3 2 2 1 1 0 1 1 1 2 3 5 6 7 7 5 4 4 5 6 6 6 6 5
10 10 10 10 9 8 8 8 8 8 8 6 5 6 6 4 4 3 3 4 3 3 2 1 1 0 1 1 2 3 5 6 6 7 6 5 5 6 6 7 6 6 5
8 9 10 9 9 8 9 9 8 9 7 7 6 5 5 5 6 6 5 4 4 4 3 2 2 1 1 0 1 3 5 5 6 6 5 5 6 6 6 6 6 5 4
6 9 9 9 8 8 9 9 9 9 8 8 7 6 5 4 5 6 7 5 4 3 3 3 3 2 1 0 1 3 4 5 6 6 6 6 7 6 7 7 6 5 3
7 9 9 9 8 8 8 8 8 8 8 8 7 6 5 5 4 5 6 5 4 2 3 3 3 2 2 1 0 2 3 5 5 6 7 7 7 7 7 7 7 6 5
8 9 9 8 9 9 8 8 7 7 6 7 6 5 4 4 4 4 4 4 4 4 4 4 2 3 2 1 1 1 2 4 5 6 7 7 7 7 8 8 8 7 6
7 9 9 9 9 8 8 8 6 6 6 6 6 5 4 3 3 3 3 4 5 5 5 4 3 3 3 2 1 1 2 4 5 6 6 7 7 8 8 9 9 9 8
8 9 9 9 9 8 8 7 6 5 6 5 4 5 4 3 3 3 3 3 4 5 4 1 1 2 3 2 2 2 3 4 5 5 6 6 7 8 8 9 10 10 10
8 9 9 9 8 8 8 8 7 7 7 6 5 5 5 4 3 3 3 3 4 4 5 1 1 2 3 3 3 2 3 3 4 5 5 6 7 8 8 8 9 10 10
7 8 9 8 8 8 8 8 8 8 7 7 7 6 5 4 4 3 3 3 3 4 4 3 2 2 2 3 3 3 2 3 3 5 5 6 6 7 8 8 8 9 9
6 7 8 9 8 8 8 7 8 7 7 7 7 7 6 6 5 4 3 3 3 2 2 3 2 2 2 2 3 2 2 2 2 3 5 5 6 7 8 8 8 8 8
6 6 7 7 8 8 7 7 7 7 6 5 5 5 5 5 5 4 4 4 3 3 3 3 3 3 2 3 3 3 3 2 1 2 3 4 5 6 7 7 8 8 9
5 6 7 7 7 6 6 8 7 7 7 6 5 4 4 4 3 3 3 4 4 4 4 4 3 3 3 4 4 4 3 3 2 1 2 1 2 2 3 4 5 6 6
5 6 6 7 7 5 9 10 8 7 7 7 6 5 4 5 5 4 3 3 3 4 4 4 4 5 5 5 4 4 4 4 3 3 2 2 1 1 1 2 3 4 4
5 6 6 6 7 8 11 11 10 7 7 6 6 6 4 4 5 4 5 4 3 1 2 4 4 5 5 5 6 6 5 4 2 3 3 3 2 2 1 1 1 2 3
5 5 6 6 7 8 11 11 11 7 6 6 6 6 5 5 5 5 5 4 3 2 1 2 3 2 2 3 5 5 5 4 3 2 2 2 3 2 2 2 2 2 3
5 5 6 7 7 8 11 11 10 6 6 6 5 5 6 6 7 7 6 5 4 3 3 3 2 2 3 4 5 5 5 4 3 3 2 2 2 2 2 2 2 2 3
5 5 5 6 7 7 11 11 11 6 6 5 5 5 7 7 9 9 6 6 5 4 4 4 4 4 4 5 5 4 4 4 2 3 4 3 3 2 2 2 3 3 4
Wind_Direction
186 184 188 188 194 195 195 199 204 201 206 209 214 225 232 237 244 248 236 214 249 265 263 264 263 262 261 263 270 271 257 253 259 268 281 275 274 280 288 292 293 287 287
195 194 196 198 201 203 205 207 210 209 214 216 222 231 241 247 253 258 265 241 235 251 260 261 263 264 266 265 273 267 256 253 260 266 272 275 276 277 284 282 275 274 274
199 201 204 205 207 208 209 213 213 218 219 221 228 236 245 254 262 264 264 270 262 241 242 256 264 265 265 262 268 269 277 262 267 270 271 272 272 272 272 277 274 263 260
204 205 208 211 210 210 211 212 213 216 217 222 229 232 240 248 262 271 269 266 268 268 240 235 270 271 271 265 271 269 273 273 282 278 274 274 273 275 271 267 264 264 257
207 209 212 212 208 210 214 212 215 217 218 221 231 238 246 251 260 263 265 266 265 267 265 173 196 312 287 276 287 289 292 296 294 289 284 280 281 278 275 269 262 258 258
207 210 212 213 208 209 214 213 213 214 222 220 225 239 249 254 259 260 260 256 253 246 244 238 216 110 59 37 359 328 319 312 302 304 304 294 288 286 285 273 270 263 259
205 207 210 211 210 215 216 215 214 214 214 207 215 234 237 240 244 244 239 228 205 197 189 210 254 262 70 60 38 10 349 333 317 306 304 298 300 302 297 289 280 271 263
205 205 207 208 210 215 216 213 210 213 207 199 213 227 239 223 208 208 209 210 215 186 156 132 120 333 300 321 43 23 357 345 336 322 305 306 304 308 310 304 299 285 276
207 205 207 209 210 213 216 212 210 210 208 207 219 226 237 240 206 191 200 205 205 204 190 168 114 358 339 344 355 21 2 346 337 330 321 319 315 315 310 305 301 297 291
209 208 209 210 209 210 213 210 208 211 212 208 213 230 247 265 239 226 201 201 206 216 217 202 202 203 313 347 5 5 358 345 339 335 331 328 322 318 313 309 304 299 292
208 207 207 209 209 207 208 205 202 205 211 213 209 210 222 234 242 248 246 218 214 217 217 223 214 211 240 327 348 5 0 354 350 346 346 351 349 340 334 333 322 307 300
212 209 205 205 206 204 204 203 201 202 204 211 212 213 212 218 221 230 243 245 240 215 209 218 216 205 204 222 29 15 16 19 13 11 17 23 15 10 2 355 351 344 335
214 210 203 201 201 199 196 195 197 199 201 206 210 213 218 226 231 234 243 250 248 233 210 214 207 196 178 181 36 15 40 33 30 28 30 32 25 23 17 10 9 10 13
211 204 202 199 196 192 188 189 194 192 192 197 201 203 206 210 221 230 234 237 246 236 218 209 187 191 171 164 66 7 69 53 58 55 47 41 34 31 27 21 23 24 25
206 200 195 192 188 183 180 178 185 182 180 187 189 190 195 194 203 218 226 230 236 242 234 199 184 172 162 152 121 114 87 76 77 73 60 51 46 45 40 37 37 36 38
199 194 189 186 182 176 172 171 172 170 173 178 179 186 189 190 190 197 211 221 235 245 244 164 176 166 162 147 119 109 96 92 85 84 74 65 59 57 51 46 45 45 49
194 190 184 180 178 177 173 170 170 171 177 173 174 178 178 176 184 190 197 212 224 232 242 223 159 161 175 167 147 123 106 103 98 86 84 76 69 64 57 50 50 52 56
189 183 177 174 173 175 175 170 168 174 177 175 173 173 173 173 184 190 195 205 214 220 229 225 184 169 178 170 153 136 110 92 95 90 89 83 74 68 63 55 56 60 62
179 176 171 171 171 172 171 171 171 173 178 177 176 178 176 179 186 186 191 196 200 207 221 208 183 162 159 163 154 137 132 112 95 95 95 88 80 73 67 59 58 61 65
171 170 169 167 166 168 165 161 163 165 167 165 168 170 173 183 186 184 187 190 190 194 193 190 180 171 167 164 175 174 169 158 138 107 98 86 88 79 70 64 60 62 65
167 164 163 161 160 160 162 161 161 162 160 155 152 158 164 161 163 182 188 186 190 196 193 191 187 178 178 178 190 179 176 159 158 174 156 118 115 95 77 70 68 68 71
167 161 165 162 160 163 161 163 159 157 158 161 161 162 158 160 166 172 175 183 205 208 200 198 203 203 199 192 178 175 168 171 185 179 186 160 161 138 91 71 75 78 84
169 166 166 167 168 164 165 166 163 160 162 168 170 168 165 167 172 169 161 159 169 202 237 223 219 215 201 187 177 180 183 189 174 150 177 173 173 173 145 102 92 119 108
177 174 171 171 168 168 168 168 163 161 163 168 172 174 172 175 177 172 167 163 157 149 171 215 223 216 204 185 184 179 164 142 116 137 193 182 175 179 170 175 153 158 151
181 179 176 174 173 171 172 171 168 160 164 167 169 178 180 185 175 176 176 170 165 146 111 106 98 116 133 158 161 149 155 166 172 172 186 187 164 168 185 186 160 172 184
187 177 177 180 178 178 178 180 179 170 171 170 174 182 193 194 182 185 190 185 186 173 155 140 129 123 131 140 157 175 176 180 165 175 177 179 164 166 184 187 195 196 194
Height
1548 1550 1552 1553 1555 1556 1557 1558 1559 1560 1560 1561 1561 1561 1562 1562 1561 1560 1560 1558 1558 1557 1556 1556 1555 1554 1553 1552 1551 1550 1549 1548 1547 1546 1545 1544 1543 1542 1541 1540 1539 1539 1538
1546 1548 1550 1551 1553 1554 1555 1556 1557 1558 1559 1559 1559 1560 1560 1560 1559 1559 1558 1557 1556 1555 1554 1553 1553 1552 1551 1551 1550 1549 1548 1547 1546 1545 1544 1543 1542 1541 1540 1539 1538 1537 1536
1544 1546 1548 1549 1551 1552 1553 1554 1555 1556 1556 1557 1557 1557 1557 1557 1557 1556 1555 1554 1554 1553 1552 1551 1550 1550 1549 1548 1548 1547 1546 1545 1544 1543 1542 1541 1540 1539 1538 1537 1536 1535 1535
1541 1543 1545 1546 1548 1549 1550 1551 1552 1553 1554 1554 1555 1555 1555 1554 1554 1553 1553 1552 1551 1550 1549 1548 1548 1547 1547 1546 1545 1544 1544 1543 1542 1541 1539 1538 1537 1536 1535 1534 1534 1533 1532
1538 1540 1542 1543 1545 1546 1547 1548 1549 1550 1551 1551 1552 1552 1552 1551 1551 1550 1549 1548 1548 1547 1546 1546 1545 1545 1544 1544 1543 1542 1541 1540 1539 1538 1537 1536 1535 1534 1533 1532 1531 1531 1530
1535 1537 1538 1540 1541 1542 1544 1545 1546 1546 1547 1548 1548 1548 1548 1548 1547 1546 1546 1545 1544 1544 1543 1543 1543 1542 1542 1541 1540 1540 1539 1538 1537 1536 1535 1534 1532 1531 1530 1529 1528 1528 1527
1530 1532 1534 1535 1537 1538 1540 1541 1542 1543 1543 1544 1545 1545 1544 1544 1543 1543 1542 1542 1541 1540 1540 1540 1540 1539 1539 1538 1538 1537 1536 1535 1534 1533 1532 1531 1529 1528 1527 1527 1526 1525 1525
1526 1527 1529 1531 1533 1534 1535 1536 1537 1538 1539 1540 1541 1542 1542 1542 1539 1539 1538 1538 1538 1537 1537 1537 1536 1536 1536 1535 1534 1534 1533 1532 1531 1530 1529 1528 1527 1526 1525 1524 1523 1522 1522
1520 1522 1524 1526 1528 1529 1530 1531 1532 1534 1534 1536 1537 1539 1539 1538 1537 1535 1534 1534 1534 1534 1534 1534 1533 1533 1533 1532 1531 1530 1530 1529 1528 1527 1526 1525 1523 1523 1522 1521 1520 1520 1519
1515 1517 1519 1520 1522 1523 1525 1526 1528 1529 1530 1531 1532 1532 1534 1534 1534 1533 1531 1530 1530 1530 1530 1530 1530 1529 1529 1528 1528 1527 1526 1526 1525 1524 1522 1521 1520 1519 1519 1518 1517 1516 1516
1509 1511 1513 1515 1516 1518 1519 1521 1522 1523 1525 1526 1527 1527 1528 1528 1529 1530 1529 1528 1527 1526 1526 1526 1525 1525 1525 1524 1524 1523 1523 1522 1521 1520 1519 1518 1517 1516 1515 1514 1513 1513 1512
1502 1504 1507 1508 1510 1512 1514 1515 1517 1518 1519 1521 1522 1522 1523 1523 1524 1524 1524 1523 1523 1522 1522 1521 1521 1521 1521 1520 1520 1520 1519 1518 1518 1517 1516 1515 1514 1513 1512 1511 1510 1509 1509
1496 1499 1500 1502 1504 1506 1508 1510 1511 1513 1514 1515 1516 1517 1517 1518 1519 1519 1519 1519 1518 1517 1517 1517 1517 1516 1516 1516 1516 1516 1515 1515 1514 1514 1513 1512 1511 1510 1510 1509 1508 1507 1507
1490 1492 1494 1496 1498 1501 1502 1504 1506 1507 1509 1510 1511 1512 1512 1513 1513 1513 1514 1514 1514 1513 1512 1512 1512 1512 1512 1512 1512 1512 1512 1512 1511 1511 1510 1509 1508 1508 1507 1506 1506 1505 1505
1484 1486 1489 1491 1493 1495 1496 1498 1500 1502 1503 1504 1505 1506 1507 1507 1507 1508 1508 1509 1510 1510 1509 1508 1508 1508 1508 1508 1508 1509 1508 1508 1508 1508 1507 1507 1506 1506 1505 1505 1504 1504 1503
1479 1481 1483 1485 1487 1489 1491 1493 1495 1496 1498 1499 1500 1501 1502 1502 1502 1502 1502 1503 1503 1505 1505 1504 1504 1504 1504 1504 1505 1505 1505 1505 1505 1505 1505 1505 1504 1504 1504 1503 1503 1503 1502
1473 1475 1477 1479 1482 1484 1486 1488 1490 1491 1493 1494 1495 1496 1496 1497 1497 1497 1497 1497 1498 1499 1500 1499 1500 1500 1501 1501 1501 1502 1502 1502 1503 1503 1503 1502 1502 1502 1502 1502 1502 1502 1502
1468 1470 1472 1474 1476 1478 1480 1482 1484 1486 1488 1489 1490 1490 1491 1491 1492 1492 1492 1493 1493 1494 1495 1495 1495 1496 1496 1497 1498 1498 1499 1500 1500 1500 1500 1500 1500 1500 1500 1500 1501 1501 1501
1463 1465 1466 1469 1471 1473 1475 1477 1479 1481 1483 1484 1485 1485 1486 1486 1487 1487 1488 1488 1489 1490 1490 1491 1491 1492 1492 1493 1494 1495 1496 1497 1497 1498 1498 1498 1499 1499 1499 1499 1499 1499 1500
1459 1461 1462 1464 1466 1469 1470 1472 1475 1477 1478 1479 1479 1480 1481 1482 1482 1483 1483 1484 1485 1485 1486 1487 1488 1488 1489 1490 1491 1492 1493 1494 1495 1496 1496 1496 1496 1497 1497 1497 1497 1498 1498
1455 1457 1459 1460 1462 1464 1466 1468 1471 1472 1473 1474 1475 1476 1477 1477 1478 1479 1479 1480 1481 1481 1482 1483 1484 1484 1485 1486 1487 1488 1490 1491 1492 1493 1493 1494 1494 1495 1495 1496 1496 1497 1497
1452 1453 1455 1456 1458 1459 1462 1465 1466 1468 1469 1470 1471 1472 1473 1473 1474 1475 1476 1476 1477 1478 1479 1480 1480 1481 1481 1483 1484 1485 1487 1488 1489 1491 1491 1492 1492 1493 1493 1494 1494 1495 1496
1448 1449 1451 1452 1454 1456 1458 1461 1462 1464 1465 1466 1467 1468 1469 1470 1471 1471 1472 1472 1473 1474 1475 1476 1477 1477 1478 1479 1480 1482 1483 1485 1486 1487 1488 1489 1490 1490 1491 1492 1492 1493 1494
1445 1446 1447 1449 1451 1453 1455 1457 1458 1460 1461 1463 1464 1465 1466 1466 1467 1468 1468 1469 1470 1470 1471 1472 1473 1474 1475 1476 1478 1479 1481 1482 1483 1485 1486 1487 1487 1488 1489 1489 1490 1491 1492
1442 1443 1445 1446 1448 1449 1451 1453 1455 1456 1458 1459 1460 1461 1462 1463 1464 1464 1465 1466 1466 1467 1468 1469 1470 1471 1472 1473 1475 1476 1477 1479 1480 1481 1483 1484 1484 1485 1486 1487 1488 1489 1490
1439 1440 1441 1443 1445 1446 1448 1449 1451 1452 1454 1455 1456 1457 1459 1460 1460 1461 1462 1463 1464 1465 1465 1466 1467 1468 1469 1470 1472 1473 1475 1476 1477 1479 1480 1481 1482 1483 1484 1484 1485 1486 1487